STARLINK-1942, 46794

Orbit data source: Space-Track

STARLINK-1942, 46794 is a payload satellite owned by SpaceX/Seattle (US) in LEO that was launched on Sat, 24 Oct 2020 UTC via an FALCON 9 launch vehicle from the Air Force Eastern Test Range (AFETR). Payload-class satellites include a variety of spacecraft equipped with specific instruments for various scientific and technological missions. These include communications satellites like Starlink; space stations such as the ISS; scientific satellites like the Hubble; Earth observation satellites from companies like Planet Labs, Umbra, and HawkEye 360; GPS; miniature CubeSats for education and research; and military/defense satellites.

Loading next visibility...
Identifier
46794, 2020-074BH
Orbit
LEO
Country
Flag of USUS
Related business
Manufacturer
SpaceX/Seattle
Mission
Partially operational Commercial Communications
Bus & Motor
STARLINK, Unknown motor
Mass
260 kg wet, ~248 kg dry
Launch date (UTC)
2020-10-24 (5 years ago)
Launch vehicle
FALCON 9
Launch site
Air Force Eastern Test Range (AFETR)
Object type
Payload
Rocket body
Debris
Shape & HBR
Box + 1 Pan, 10.1 m
Radar Cross Section
13.562 m², Large (>1 m²)

Expand to show TLE details & history
Last TLE update: 17 hours ago

TLE from 17 hours ago
0 STARLINK-1942
1 46794U 20074BH  25355.16216921  .00015026  00000-0  46261-3 0  9997
2 46794  53.0517 305.6830 0009319  67.2370 292.9614 15.33836681284961
Epoch: 2025-12-21T03:53Z
TLE epoch observation values (Epoch: 2025-12-21T03:53:31.419Z)
Latitude
-0.0001°
Longitude
157.32344°
Altitude
462.785 km
Speed
7.638 km/s
True Right ascension
20h 22m 43s
True Declination
0° 00' 00"
Sunlit
Object was in daylight at epoch
Visualization orbit readout
Latitude
Unknown
Longitude
Unknown
Altitude
Unknown
Speed
Unknown
Apparent Right ascension
Unknown
Apparent Declination
Unknown
Sunlit
N/A
Visualization observer readout
Local Sidereal Time
19:55:43
Azimuth
Unknown
Elevation
Unknown
Doppler factor
Unknown
Orbital elements
Apogee altitude
471.029 km
Perigee altitude
458.276 km
Semi-major axis
6,842.789 km
Eccentricity
0.00093
Inclination
53.0517°
RAAN
305.683°
Arg. of periapsis
67.237°
True anomaly
292.86303°
Mean anomaly
292.9614°
Eccentric anomaly
292.91222°
Mean motion
3.83436 °/min
Orbital period
93.89 mins
BSTAR
0.00046261
Loading maneuver chart data...
Computing Atmospheric mass density...
Loading historical data...
Loading historical data...
Loading historical data...
Loading historical data...
Loading historical data...
Loading historical data...
Loading historical data...

Documentation

Showing up to 5 results
|